Time,TemperatureF,DewpointF,PressureIn,WindDirection,WindDirectionDegrees,WindSpeedMPH,WindSpeedGustMPH,Humidity,HourlyPrecipIn,Conditions,Clouds,dailyrainin,SoftwareType,DateUTC
2013-06-23 00:11:00,54.0,53.0,29.92,East,92,0.0,1.0,97,0.00,,,0.98,,2013-06-23 05:11:00,
2013-06-23 00:22:00,53.0,52.0,29.92,ESE,116,0.0,0.0,98,0.00,,,0.00,,2013-06-23 05:22:00,
2013-06-23 00:32:00,53.0,52.0,29.92,ESE,116,0.0,0.0,98,0.00,,,0.00,,2013-06-23 05:32:00,
2013-06-23 00:41:00,53.0,52.0,29.92,ESE,116,0.0,1.0,98,0.00,,,0.00,,2013-06-23 05:41:00,
2013-06-23 00:51:00,53.0,52.0,29.92,ESE,116,0.0,2.0,98,0.00,,,0.00,,2013-06-23 05:51:00,
2013-06-23 01:02:00,53.0,52.0,29.92,ESE,116,0.0,0.0,98,0.00,,,0.00,,2013-06-23 06:02:00,
2013-06-23 01:12:00,53.0,52.0,29.92,ESE,116,0.0,0.0,98,0.00,,,0.00,,2013-06-23 06:12:00,
2013-06-23 01:22:00,53.0,52.0,29.91,ESE,116,0.0,1.0,98,0.00,,,0.00,,2013-06-23 06:22:00,
2013-06-23 01:33:00,53.0,52.0,29.90,ESE,116,0.0,0.0,98,0.00,,,0.00,,2013-06-23 06:33:00,
2013-06-23 01:43:00,53.0,52.0,29.90,ESE,116,0.0,0.0,98,0.00,,,0.00,,2013-06-23 06:43:00,
2013-06-23 01:52:00,53.0,52.0,29.89,ESE,116,0.0,2.0,98,0.00,,,0.00,,2013-06-23 06:52:00,
2013-06-23 02:02:00,53.0,52.0,29.87,ESE,116,0.0,2.0,98,0.00,,,0.00,,2013-06-23 07:02:00,
2013-06-23 02:12:00,53.0,52.0,29.87,ESE,116,0.0,2.0,98,0.00,,,0.00,,2013-06-23 07:12:00,
2013-06-23 02:22:00,53.0,52.0,29.87,ESE,116,0.0,0.0,98,0.00,,,0.00,,2013-06-23 07:22:00,
2013-06-23 02:34:00,52.0,51.0,29.87,ESE,116,0.0,0.0,98,0.00,,,0.00,,2013-06-23 07:34:00,
2013-06-23 02:43:00,52.0,51.0,29.87,ESE,116,0.0,0.0,98,0.00,,,0.00,,2013-06-23 07:43:00,
2013-06-23 02:53:00,52.0,51.0,29.88,ESE,117,0.0,1.0,98,0.00,,,0.00,,2013-06-23 07:53:00,
2013-06-23 03:02:00,52.0,51.0,29.88,South,178,0.0,4.0,98,0.00,,,0.00,,2013-06-23 08:02:00,
2013-06-23 03:12:00,52.0,51.0,29.88,South,178,0.0,4.0,98,0.00,,,0.00,,2013-06-23 08:12:00,
2013-06-23 03:22:00,53.0,52.0,29.88,South,178,0.0,3.0,97,0.00,,,0.00,,2013-06-23 08:22:00,
2013-06-23 03:34:00,53.0,52.0,29.87,South,178,0.0,1.0,97,0.00,,,0.00,,2013-06-23 08:34:00,
2013-06-23 03:43:00,53.0,52.0,29.87,South,178,0.0,1.0,97,0.00,,,0.00,,2013-06-23 08:43:00,
2013-06-23 03:53:00,53.0,52.0,29.87,South,178,0.0,0.0,97,0.00,,,0.00,,2013-06-23 08:53:00,
2013-06-23 04:02:00,53.0,52.0,29.86,South,178,0.0,0.0,97,0.00,,,0.00,,2013-06-23 09:02:00,
2013-06-23 04:12:00,53.0,52.0,29.86,South,178,0.0,0.0,97,0.00,,,0.00,,2013-06-23 09:12:00,
2013-06-23 04:22:00,53.0,52.0,29.85,South,178,0.0,1.0,97,0.00,,,0.00,,2013-06-23 09:22:00,
2013-06-23 04:34:00,53.0,52.0,29.85,South,178,0.0,0.0,97,0.00,,,0.00,,2013-06-23 09:34:00,
2013-06-23 04:43:00,53.0,52.0,29.85,South,178,0.0,0.0,97,0.00,,,0.00,,2013-06-23 09:43:00,
2013-06-23 04:54:00,53.0,52.0,29.83,South,178,0.0,0.0,97,0.01,,,0.01,,2013-06-23 09:54:00,
2013-06-23 05:02:00,53.0,52.0,29.83,South,177,0.0,1.0,97,0.01,,,0.01,,2013-06-23 10:02:00,
2013-06-23 05:11:00,53.0,52.0,29.83,South,177,0.0,1.0,97,0.01,,,0.01,,2013-06-23 10:11:00,
2013-06-23 05:22:00,53.0,52.0,29.83,South,178,0.0,0.0,97,0.01,,,0.01,,2013-06-23 10:22:00,
2013-06-23 05:34:00,53.0,52.0,29.84,South,178,0.0,1.0,97,0.01,,,0.01,,2013-06-23 10:34:00,
2013-06-23 05:43:00,53.0,52.0,29.84,South,178,0.0,1.0,97,0.01,,,0.01,,2013-06-23 10:43:00,
2013-06-23 05:53:00,53.0,52.0,29.84,South,178,0.0,1.0,97,0.00,,,0.01,,2013-06-23 10:53:00,
2013-06-23 06:01:00,53.0,52.0,29.84,South,178,0.0,1.0,97,0.00,,,0.01,,2013-06-23 11:01:00,
2013-06-23 06:11:00,53.0,52.0,29.84,South,178,0.0,1.0,97,0.00,,,0.01,,2013-06-23 11:11:00,
2013-06-23 06:22:00,53.0,52.0,29.83,South,178,0.0,0.0,97,0.00,,,0.01,,2013-06-23 11:22:00,
2013-06-23 06:33:00,53.0,52.0,29.82,South,178,0.0,1.0,97,0.00,,,0.01,,2013-06-23 11:33:00,
2013-06-23 06:43:00,53.0,52.0,29.82,South,178,0.0,1.0,97,0.00,,,0.01,,2013-06-23 11:43:00,
2013-06-23 06:53:00,54.0,53.0,29.81,South,178,0.0,0.0,97,0.00,,,0.01,,2013-06-23 11:53:00,
2013-06-23 07:01:00,54.0,53.0,29.82,South,178,0.0,1.0,97,0.00,,,0.01,,2013-06-23 12:01:00,
2013-06-23 07:12:00,54.0,53.0,29.82,South,178,0.0,1.0,97,0.00,,,0.01,,2013-06-23 12:12:00,
2013-06-23 07:22:00,54.0,53.0,29.83,South,178,0.0,1.0,97,0.00,,,0.01,,2013-06-23 12:22:00,
2013-06-23 07:33:00,55.0,54.0,29.83,South,178,0.0,1.0,97,0.00,,,0.01,,2013-06-23 12:33:00,
2013-06-23 07:42:00,55.0,54.0,29.83,South,178,0.0,1.0,97,0.00,,,0.01,,2013-06-23 12:42:00,
2013-06-23 07:53:00,55.0,54.0,29.82,South,177,0.0,2.0,97,0.00,,,0.01,,2013-06-23 12:53:00,
2013-06-23 08:02:00,55.0,54.0,29.83,South,177,0.0,1.0,97,0.00,,,0.01,,2013-06-23 13:02:00,
2013-06-23 08:11:00,55.0,54.0,29.83,South,177,0.0,1.0,97,0.00,,,0.01,,2013-06-23 13:11:00,
2013-06-23 08:23:00,55.0,54.0,29.82,South,177,0.0,1.0,96,0.00,,,0.01,,2013-06-23 13:23:00,
2013-06-23 08:34:00,55.0,54.0,29.82,South,176,0.0,2.0,96,0.00,,,0.01,,2013-06-23 13:34:00,
2013-06-23 08:43:00,55.0,54.0,29.82,South,176,0.0,2.0,96,0.00,,,0.01,,2013-06-23 13:43:00,
2013-06-23 08:54:00,55.0,54.0,29.82,South,176,0.0,1.0,96,0.00,,,0.01,,2013-06-23 13:54:00,
2013-06-23 09:04:00,56.0,55.0,29.81,South,176,0.0,1.0,95,0.00,,,0.01,,2013-06-23 14:04:00,
2013-06-23 09:11:00,56.0,55.0,29.81,South,176,0.0,1.0,95,0.00,,,0.01,,2013-06-23 14:11:00,
2013-06-23 09:22:00,56.0,55.0,29.79,East,79,0.0,2.0,95,0.00,,,0.01,,2013-06-23 14:22:00,
2013-06-23 09:34:00,57.0,55.0,29.78,East,79,0.0,3.0,94,0.00,,,0.01,,2013-06-23 14:34:00,
2013-06-23 09:44:00,57.0,55.0,29.78,East,79,0.0,3.0,94,0.00,,,0.01,,2013-06-23 14:44:00,
2013-06-23 09:52:00,58.0,56.0,29.76,ENE,70,0.0,2.0,93,0.00,,,0.01,,2013-06-23 14:52:00,
2013-06-23 10:05:00,59.0,56.0,29.73,ENE,67,1.0,3.0,91,0.00,,,0.01,,2013-06-23 15:05:00,
2013-06-23 10:11:00,59.0,56.0,29.73,ENE,67,1.0,3.0,91,0.00,,,0.01,,2013-06-23 15:11:00,
2013-06-23 10:23:00,59.0,56.0,29.71,ENE,67,1.0,3.0,90,0.00,,,0.01,,2013-06-23 15:23:00,
2013-06-23 10:35:00,59.0,56.0,29.71,ENE,67,0.0,3.0,90,0.00,,,0.01,,2013-06-23 15:35:00,
2013-06-23 10:43:00,59.0,56.0,29.71,ENE,67,0.0,3.0,90,0.00,,,0.01,,2013-06-23 15:43:00,
2013-06-23 10:53:00,56.0,53.0,29.73,North,11,2.0,6.0,91,0.00,,,0.01,,2013-06-23 15:53:00,
2013-06-23 11:06:00,56.0,54.0,29.73,NNE,25,1.0,4.0,93,0.00,,,0.01,,2013-06-23 16:06:00,
2013-06-23 11:12:00,56.0,54.0,29.73,NNE,25,1.0,4.0,93,0.00,,,0.01,,2013-06-23 16:12:00,
2013-06-23 11:22:00,56.0,54.0,29.73,East,85,0.0,3.0,94,0.00,,,0.01,,2013-06-23 16:22:00,
2013-06-23 11:36:00,56.0,54.0,29.73,East,85,0.0,3.0,94,0.00,,,0.01,,2013-06-23 16:36:00,
2013-06-23 11:43:00,57.0,55.0,29.73,NE,34,0.0,3.0,94,0.00,,,0.01,,2013-06-23 16:43:00,
2013-06-23 11:53:00,58.0,56.0,29.74,NE,40,0.0,2.0,94,0.00,,,0.01,,2013-06-23 16:53:00,
2013-06-23 12:04:00,60.0,58.0,29.74,NNE,30,0.0,2.0,92,0.00,,,0.01,,2013-06-23 17:04:00,
2013-06-23 12:12:00,60.0,58.0,29.74,NNE,30,0.0,2.0,92,0.00,,,0.01,,2013-06-23 17:12:00,
2013-06-23 12:22:00,61.0,58.0,29.73,NE,51,1.0,3.0,91,0.00,,,0.01,,2013-06-23 17:22:00,
2013-06-23 12:33:00,62.0,59.0,29.74,ENE,59,0.0,2.0,90,0.00,,,0.01,,2013-06-23 17:33:00,
2013-06-23 12:43:00,62.0,59.0,29.74,ENE,59,0.0,2.0,90,0.00,,,0.01,,2013-06-23 17:43:00,
2013-06-23 12:53:00,64.0,61.0,29.73,ENE,59,0.0,2.0,89,0.00,,,0.01,,2013-06-23 17:53:00,
2013-06-23 13:01:00,66.0,62.0,29.73,ENE,59,0.0,3.0,88,0.00,,,0.01,,2013-06-23 18:01:00,
2013-06-23 13:12:00,66.0,62.0,29.73,ENE,59,0.0,3.0,88,0.00,,,0.01,,2013-06-23 18:12:00,
2013-06-23 13:22:00,67.0,63.0,29.72,West,266,0.0,2.0,88,0.00,,,0.01,,2013-06-23 18:22:00,
2013-06-23 13:34:00,67.0,63.0,29.72,West,266,0.0,2.0,88,0.00,,,0.01,,2013-06-23 18:34:00,
2013-06-23 13:42:00,70.0,66.0,29.72,West,266,0.0,2.0,86,0.00,,,0.01,,2013-06-23 18:42:00,
2013-06-23 13:53:00,72.0,66.0,29.71,West,266,0.0,1.0,82,0.00,,,0.01,,2013-06-23 18:53:00,
2013-06-23 14:01:00,72.0,66.0,29.71,West,266,0.0,1.0,82,0.00,,,0.01,,2013-06-23 19:01:00,
2013-06-23 14:11:00,74.0,67.0,29.71,West,266,0.0,2.0,80,0.00,,,0.01,,2013-06-23 19:11:00,
2013-06-23 14:21:00,74.0,66.0,29.71,West,266,0.0,2.0,76,0.00,,,0.01,,2013-06-23 19:21:00,
2013-06-23 14:32:00,74.0,66.0,29.71,West,266,0.0,2.0,76,0.00,,,0.01,,2013-06-23 19:32:00,
2013-06-23 14:43:00,73.0,66.0,29.71,West,263,2.0,6.0,80,0.00,,,0.01,,2013-06-23 19:43:00,
2013-06-23 14:53:00,79.0,68.0,29.71,West,262,3.0,13.0,68,0.00,,,0.01,,2013-06-23 19:53:00,
2013-06-23 15:02:00,79.0,68.0,29.71,West,262,3.0,13.0,68,0.00,,,0.01,,2013-06-23 20:02:00,
2013-06-23 15:12:00,80.0,67.0,29.71,WSW,248,5.0,16.0,64,0.00,,,0.01,,2013-06-23 20:12:00,
2013-06-23 15:24:00,81.0,68.0,29.71,South,183,3.0,10.0,65,0.00,,,0.01,,2013-06-23 20:24:00,
2013-06-23 15:33:00,81.0,68.0,29.71,South,183,3.0,10.0,65,0.00,,,0.01,,2013-06-23 20:33:00,
2013-06-23 15:42:00,81.0,69.0,29.70,South,169,2.0,12.0,66,0.00,,,0.01,,2013-06-23 20:42:00,
2013-06-23 15:53:00,83.0,70.0,29.70,WNW,294,3.0,13.0,65,0.00,,,0.01,,2013-06-23 20:53:00,
2013-06-23 16:01:00,83.0,70.0,29.70,WNW,294,3.0,13.0,65,0.00,,,0.01,,2013-06-23 21:01:00,
2013-06-23 16:11:00,83.0,70.0,29.70,SW,227,5.0,11.0,64,0.00,,,0.01,,2013-06-23 21:11:00,
2013-06-23 16:22:00,83.0,68.0,29.70,WSW,250,2.0,11.0,61,0.00,,,0.01,,2013-06-23 21:22:00,
2013-06-23 16:34:00,83.0,68.0,29.70,WSW,250,2.0,11.0,61,0.00,,,0.01,,2013-06-23 21:34:00,
2013-06-23 16:44:00,83.0,68.0,29.70,WSW,250,2.0,11.0,61,0.00,,,0.01,,2013-06-23 21:44:00,
2013-06-23 16:52:00,83.0,69.0,29.70,WNW,288,2.0,8.0,62,0.00,,,0.01,,2013-06-23 21:52:00,
2013-06-23 17:01:00,83.0,69.0,29.70,WNW,288,2.0,8.0,62,0.00,,,0.01,,2013-06-23 22:01:00,
2013-06-23 17:12:00,83.0,69.0,29.70,NW,324,2.0,11.0,62,0.00,,,0.01,,2013-06-23 22:12:00,
2013-06-23 17:22:00,83.0,66.0,29.70,SW,228,4.0,12.0,56,0.00,,,0.01,,2013-06-23 22:22:00,
2013-06-23 17:32:00,83.0,66.0,29.70,SW,228,4.0,12.0,56,0.00,,,0.01,,2013-06-23 22:32:00,
2013-06-23 17:43:00,83.0,67.0,29.70,West,262,4.0,10.0,58,0.00,,,0.01,,2013-06-23 22:43:00,
2013-06-23 17:53:00,83.0,68.0,29.70,WNW,302,2.0,7.0,60,0.00,,,0.01,,2013-06-23 22:53:00,
2013-06-23 18:01:00,83.0,68.0,29.70,WNW,302,2.0,7.0,60,0.00,,,0.01,,2013-06-23 23:01:00,
2013-06-23 18:11:00,83.0,67.0,29.70,WSW,252,1.0,6.0,58,0.00,,,0.01,,2013-06-23 23:11:00,
2013-06-23 18:22:00,83.0,67.0,29.70,SSW,197,3.0,13.0,59,0.00,,,0.01,,2013-06-23 23:22:00,
2013-06-23 18:33:00,83.0,67.0,29.70,SSW,197,3.0,13.0,59,0.00,,,0.01,,2013-06-23 23:33:00,
2013-06-23 18:44:00,83.0,67.0,29.70,WSW,242,2.0,9.0,59,0.00,,,0.01,,2013-06-23 23:44:00,
2013-06-23 18:52:00,82.0,66.0,29.70,SE,140,2.0,8.0,58,0.00,,,0.01,,2013-06-23 23:52:00,
2013-06-23 19:01:00,82.0,66.0,29.70,SE,140,2.0,8.0,58,0.00,,,0.01,,2013-06-24 00:01:00,
2013-06-23 19:11:00,82.0,66.0,29.71,SE,145,3.0,7.0,59,0.00,,,0.01,,2013-06-24 00:11:00,
2013-06-23 19:22:00,81.0,66.0,29.71,WSW,256,3.0,10.0,61,0.00,,,0.01,,2013-06-24 00:22:00,
2013-06-23 19:33:00,81.0,66.0,29.71,WSW,256,3.0,10.0,61,0.00,,,0.01,,2013-06-24 00:33:00,
2013-06-23 19:42:00,81.0,66.0,29.71,WSW,256,3.0,10.0,61,0.00,,,0.01,,2013-06-24 00:42:00,
2013-06-23 19:52:00,80.0,66.0,29.73,WSW,257,2.0,8.0,63,0.00,,,0.01,,2013-06-24 00:52:00,
2013-06-23 20:02:00,80.0,66.0,29.73,WSW,257,2.0,8.0,63,0.00,,,0.01,,2013-06-24 01:02:00,
2013-06-23 20:11:00,80.0,67.0,29.73,WSW,253,4.0,8.0,64,0.00,,,0.01,,2013-06-24 01:11:00,
2013-06-23 20:22:00,79.0,67.0,29.74,SSE,155,1.0,9.0,66,0.00,,,0.01,,2013-06-24 01:22:00,
2013-06-23 20:32:00,79.0,67.0,29.74,SSE,155,1.0,9.0,66,0.00,,,0.01,,2013-06-24 01:32:00,
2013-06-23 20:42:00,78.0,67.0,29.74,SSW,196,1.0,5.0,68,0.00,,,0.01,,2013-06-24 01:42:00,
2013-06-23 20:53:00,77.0,66.0,29.75,SSE,167,0.0,3.0,69,0.00,,,0.01,,2013-06-24 01:53:00,
2013-06-23 21:02:00,77.0,66.0,29.75,SSE,167,0.0,3.0,69,0.00,,,0.01,,2013-06-24 02:02:00,
2013-06-23 21:11:00,76.0,66.0,29.75,SSE,167,0.0,2.0,71,0.00,,,0.01,,2013-06-24 02:11:00,
2013-06-23 21:22:00,75.0,66.0,29.75,SSE,160,1.0,4.0,73,0.00,,,0.01,,2013-06-24 02:22:00,
2013-06-23 21:33:00,75.0,66.0,29.75,SSE,160,1.0,4.0,73,0.00,,,0.01,,2013-06-24 02:33:00,
2013-06-23 21:42:00,75.0,67.0,29.75,SSE,168,0.0,3.0,75,0.00,,,0.01,,2013-06-24 02:42:00,
2013-06-23 21:53:00,74.0,66.0,29.76,South,171,1.0,5.0,76,0.00,,,0.01,,2013-06-24 02:53:00,
2013-06-23 22:01:00,74.0,66.0,29.76,South,171,1.0,5.0,76,0.00,,,0.01,,2013-06-24 03:01:00,
2013-06-23 22:11:00,73.0,66.0,29.77,South,180,0.0,3.0,78,0.00,,,0.01,,2013-06-24 03:11:00,
2013-06-23 22:22:00,72.0,65.0,29.77,South,178,0.0,4.0,80,0.00,,,0.01,,2013-06-24 03:22:00,
2013-06-23 22:33:00,72.0,65.0,29.77,South,178,0.0,4.0,80,0.00,,,0.01,,2013-06-24 03:33:00,
2013-06-23 22:43:00,72.0,65.0,29.77,South,175,0.0,2.0,80,0.00,,,0.01,,2013-06-24 03:43:00,
2013-06-23 22:53:00,71.0,65.0,29.78,SSW,192,0.0,1.0,81,0.00,,,0.01,,2013-06-24 03:53:00,
2013-06-23 23:02:00,71.0,65.0,29.78,SSW,192,0.0,1.0,81,0.00,,,0.01,,2013-06-24 04:02:00,
2013-06-23 23:12:00,71.0,65.0,29.78,SSE,165,0.0,2.0,82,0.00,,,0.01,,2013-06-24 04:12:00,
2013-06-23 23:22:00,71.0,65.0,29.78,SSE,165,0.0,2.0,82,0.00,,,0.01,,2013-06-24 04:22:00,
2013-06-23 23:33:00,71.0,66.0,29.79,SSE,165,0.0,2.0,83,0.00,,,0.01,,2013-06-24 04:33:00,
2013-06-23 23:43:00,70.0,65.0,29.79,SSE,165,0.0,1.0,85,0.00,,,0.01,,2013-06-24 04:43:00,
2013-06-23 23:52:00,70.0,65.0,29.79,SSE,165,0.0,1.0,85,0.00,,,0.01,,2013-06-24 04:52:00,